Regional Weather Roundup
Issued by NWS Mt. Holly, NJ

Home | Current Version | Previous Version | Text Only | Print | Product List | Glossary On
Versions: 1 2 3 4 5 6 7 8 9 10 11 12 13 14 15 16 17 18 19 20 21 22 23 24 25 26 27
000
ASUS41 KPHI 261612
RWRPHI

REGIONAL WEATHER ROUNDUP
NATIONAL WEATHER SERVICE MOUNT HOLLY NJ
1200 PM EDT WED APR 26 2017

NOTE:  "FAIR" INDICATES FEW OR NO CLOUDS BELOW 12,000 FEET WITH NO
SIGNIFICANT WEATHER AND/OR OBSTRUCTIONS TO VISIBILITY.

 * = STATION DOES NOT REPORT PRECIPITATION (E.G. RAIN, SNOW, ETC.)
        OR FOG.

NJZ015>026-261700-
SOUTHERN NEW JERSEY

CITY           SKY/WX    TMP DP  RH WIND       PRES   REMARKS
POMONA         CLOUDY    61  58  90 N7        29.75S
WILDWOOD*      CLOUDY    60  58  92 NW5       29.77R
MILLVILLE      CLOUDY    61  59  93 N6        29.77R
WRIGHTSTOWN    CLOUDY    59  57  94 N9        29.74S
MOUNT HOLLY    CLOUDY    60  56  86 NE6       29.77R
TRENTON        CLOUDY    59  56  89 N7        29.77R

$$
NJZ001>014-261700-
NORTHERN NEW JERSEY

CITY           SKY/WX    TMP DP  RH WIND       PRES   REMARKS
SUSSEX         CLOUDY    56  53  90 NE9       29.81R
ANDOVER*         N/A     55  53  93 VRB3      29.81R
MORRISTOWN     CLOUDY    59  57  94 NE3       29.79R
NEWARK         LGT RAIN  57  56  96 NE8       29.78R
TETERBORO      LGT RAIN  59  56  89 NE6       29.77R
CALDWELL       CLOUDY    59  54  83 E8        29.79R
SOMERVILLE     CLOUDY    60  56  86 NE3       29.77R
ALLAIRE*       CLOUDY    57  55  93 N7        29.78R
TOMS RIVER*    CLOUDY    58  56  93 N7        29.77S

$$
PAZ043-044-047-054-055-060>062-066>071-261700-
EASTERN PENNSYLVANIA

CITY           SKY/WX    TMP DP  RH WIND       PRES   REMARKS
PHILADELPHIA   CLOUDY    60  56  86 N8        29.78R
NORTH PHILA    CLOUDY    62  57  83 NE8       29.79R
BLUE BELL*     CLOUDY    59  55  88 CALM      29.80R
DOYLESTOWN     CLOUDY    58  56  93 N6        29.79R
QUAKERTOWN*    CLOUDY    59  55  88 NE6       29.80S
PERKASIE*      CLOUDY    55  55 100 N5        29.81R
POTTSTOWN      CLOUDY    58  54  86 N6        29.81R
LANCASTER      CLOUDY    62  58  86 NE6       29.80R
COATESVILLE      N/A     59  57  94 NE6       29.80S
READING        CLOUDY    61  57  87 NE6       29.78F
ALLENTOWN      CLOUDY    62  54  74 E7        29.80R
MOUNT POCONO   CLOUDY    54  54 100 NE6       29.81R FOG
HAZLETON       FAIR      68  55  64 CALM      29.82S
LEHIGHTON      CLOUDY    63  54  72 SE3       29.80S
WILKES BARRE   CLOUDY    64  54  69 N8        29.79R

$$
DEZALL-MDZ008-012-015-019-020-261700-
DELAWARE AND EASTERN MARYLAND

CITY           SKY/WX    TMP DP  RH WIND       PRES   REMARKS
WILMINGTON     CLOUDY    63  58  83 N7        29.78R
GEORGETOWN     CLOUDY    62  59  90 N6        29.77R
EASTON         CLOUDY    59  57  94 NW7       29.82R FOG
ABERDEEN       CLOUDY    61  59  94 N3        29.80
PATUXENT       CLOUDY    60  60 100 NW9       29.79S
OCEAN CITY     CLOUDY    60  57  89 N8        29.77R
WALLOPS ISLAND CLOUDY    60  59  96 W8        29.78R
CAMBRIDGE      CLOUDY    59  59 100 NW8       29.79R FOG
SALISBURY      CLOUDY    62  60  93 NW8       29.77R

$$
PAZ001-021-NYZ056-072-MDZ011-DCZ001-261700-
OTHER NEARBY LOCATIONS

CITY           SKY/WX    TMP DP  RH WIND       PRES   REMARKS
HARRISBURG     CLOUDY    58  57  97 W6        29.81R
STATE COLLEGE  CLOUDY    59  55  88 CALM      29.81F
WILLIAMSPORT   CLOUDY    63  55  75 CALM      29.80S
BINGHAMTON     FAIR      65  55  70 CALM      29.80S
NEW YORK CITY  CLOUDY    57  55  93 VRB6G18   29.80R
BALTIMORE      DRIZZLE   61  59  93 N5        29.79S
WASHINGTON DC  CLOUDY    66  58  75 N6        29.79F

$$




USA.gov is the U.S. government's official web portal to all federal, state and local government web resources and services.